Wind_Speed
29 29 29 29 28 29 29 29 29 29 30 30 30 30 31 31 31 31 32 32 32 32 32 33 33 34 34 35 35 36 37 38 38 38 38 38 39 39 39 40 41 41 42
30 30 30 30 30 30 30 30 30 30 30 31 31 31 32 32 32 33 33 33 33 33 34 34 35 35 36 37 37 38 39 40 40 39 40 40 41 40 40 41 42 43 44
31 31 31 31 31 31 30 30 31 31 31 31 31 32 32 33 33 33 33 33 33 34 34 35 36 37 37 38 39 40 41 41 41 41 42 42 42 42 43 44 44 44 45
32 32 32 31 31 31 31 31 31 31 31 31 31 32 33 33 33 33 33 33 34 34 35 36 37 38 38 39 40 41 42 42 42 43 43 43 44 45 46 47 47 47 47
33 33 32 32 32 31 31 32 32 32 31 31 31 32 33 33 33 33 33 34 35 35 36 37 38 39 39 40 41 42 43 43 44 44 44 45 46 47 48 48 49 49 49
35 34 33 33 32 32 32 31 31 31 31 31 31 32 32 33 33 34 34 35 36 36 37 38 39 39 40 41 42 43 44 44 45 45 46 47 47 47 48 49 49 50 51
35 34 34 33 33 32 31 31 31 31 31 31 32 32 33 33 34 34 35 35 36 36 37 38 39 39 40 41 42 43 44 45 45 47 48 48 48 49 49 49 51 51 51
35 34 34 33 32 32 31 31 31 31 32 31 31 32 32 33 33 34 35 35 36 37 38 39 39 39 40 41 42 43 44 45 46 47 48 49 49 50 50 51 51 51 51
35 34 33 32 32 32 32 32 32 31 32 32 33 33 34 34 34 34 35 36 37 38 39 40 41 41 42 43 43 44 45 46 47 48 49 49 50 51 51 51 52 52 52
34 33 33 33 32 32 32 31 31 32 32 33 33 34 35 36 36 35 36 37 38 39 41 42 42 43 43 44 45 46 47 47 47 48 49 50 50 51 51 52 52 52 52
34 33 33 33 32 32 32 32 32 33 33 34 34 35 35 36 37 38 37 38 39 41 42 43 43 44 45 45 46 47 48 48 49 49 50 50 50 51 52 52 53 52 52
35 34 34 33 33 33 33 33 33 33 34 35 35 36 36 37 38 39 39 40 41 41 42 43 44 45 46 47 48 48 49 49 50 51 50 51 51 52 52 52 52 50 49
36 35 35 34 34 34 34 34 34 34 35 36 36 37 37 38 39 40 41 42 42 42 43 44 45 47 48 49 49 50 50 51 51 51 51 51 51 52 51 51 49 48 47
36 36 36 35 34 34 34 35 35 35 36 36 37 37 38 39 40 42 42 43 43 43 43 45 46 48 49 50 50 51 51 52 52 51 51 51 51 50 49 48 47 46 45
37 36 35 35 35 35 35 36 36 36 37 37 38 38 39 40 41 43 43 45 45 45 44 46 47 49 50 51 51 52 52 52 51 51 52 52 51 50 48 46 45 44 44
37 36 36 35 35 35 35 36 36 37 37 37 38 39 40 41 42 43 44 45 46 47 47 47 49 50 51 52 53 53 52 52 52 52 52 52 50 47 45 44 43 42 41
36 36 36 36 36 36 36 37 37 37 37 38 38 39 40 41 43 44 45 46 47 48 48 49 50 51 52 52 52 52 52 52 51 51 50 49 47 44 43 42 41 40 39
37 37 37 37 37 36 37 38 38 38 38 38 39 40 41 42 44 44 45 47 48 49 50 50 50 50 51 52 51 50 50 50 49 48 46 45 42 41 40 39 38 37 37
37 37 37 37 37 37 38 38 38 38 38 39 40 41 42 43 44 45 46 47 48 49 50 50 50 50 50 49 49 48 48 47 46 44 42 40 39 39 38 37 36 35 36
38 37 38 37 37 38 38 38 38 38 39 39 40 42 43 44 44 45 46 47 48 49 50 49 49 48 47 46 46 46 45 44 42 40 39 37 37 37 36 36 35 35 35
38 38 37 37 37 38 38 38 38 38 39 40 40 42 43 44 45 46 47 47 48 49 49 48 47 45 45 44 44 44 42 40 38 37 36 35 35 35 34 34 34 33 33
38 39 38 38 38 38 38 37 38 39 39 40 40 42 42 43 44 45 46 46 47 47 46 45 44 44 43 43 43 42 40 38 35 34 33 33 33 32 32 31 31 32 32
38 38 38 38 38 38 38 38 38 39 39 40 40 41 42 43 43 44 44 45 46 45 44 43 43 43 43 42 42 40 39 38 35 33 32 31 31 30 30 30 30 31 31
38 38 38 38 38 38 38 39 39 39 39 39 40 41 42 42 42 43 43 44 43 42 42 42 43 43 42 41 39 38 37 36 34 31 31 30 29 29 29 29 30 31 31
37 37 37 37 37 37 38 38 38 38 38 39 39 40 41 41 42 42 42 42 41 41 41 42 42 42 40 38 37 37 35 33 31 30 30 29 27 28 29 29 30 30 30
36 36 36 36 37 37 37 37 38 38 38 38 39 39 40 41 41 40 40 39 40 40 40 40 40 39 38 36 35 34 33 31 30 29 28 28 28 28 28 28 28 28 28
Wind_Direction
265 266 268 269 270 272 274 277 279 281 282 283 283 283 284 286 287 288 289 290 290 290 291 291 291 291 291 291 292 292 291 292 291 291 290 290 289 289 287 287 285 284 283
264 265 267 269 270 272 274 276 278 281 282 283 283 284 285 286 287 288 289 290 290 290 290 290 291 291 291 292 291 292 291 291 291 291 290 290 289 289 287 287 286 285 284
263 266 268 269 271 272 274 276 278 280 281 282 283 284 285 287 288 289 290 290 290 290 290 291 291 292 292 292 292 292 293 292 291 291 290 290 289 288 287 287 287 286 285
262 265 267 270 272 273 275 277 278 279 281 282 283 285 286 287 289 289 290 290 290 290 291 291 292 292 292 292 292 293 293 293 293 292 291 290 289 288 288 288 288 287 287
263 265 268 270 272 273 275 276 277 279 281 283 285 286 287 288 289 290 291 291 291 292 292 293 293 293 293 293 293 294 294 294 293 293 292 291 291 290 289 288 288 287 288
265 267 268 270 272 274 274 276 277 278 280 283 285 287 288 289 290 291 292 293 293 294 294 295 295 295 294 294 294 294 294 294 294 294 293 292 292 292 291 289 288 288 287
264 267 268 269 271 273 275 276 277 278 280 282 284 286 288 289 291 292 293 294 295 296 297 297 297 296 296 295 295 296 296 295 295 295 294 293 292 292 292 291 289 289 288
263 265 267 268 270 272 275 276 277 278 280 282 284 285 287 289 291 293 294 295 296 297 298 298 298 297 297 297 298 298 297 297 297 297 296 294 293 293 292 292 291 289 288
262 263 265 267 270 273 275 277 278 280 281 283 285 286 288 289 291 292 294 295 296 296 296 297 297 297 297 298 299 299 298 298 298 298 297 296 295 294 293 292 291 291 289
261 263 266 268 270 272 274 276 277 279 281 284 286 287 288 290 291 292 293 295 296 296 296 296 296 296 297 298 299 299 299 299 300 299 299 297 296 294 293 293 292 292 290
261 263 266 268 270 272 273 275 277 279 282 284 286 288 289 291 292 293 294 295 296 297 297 297 297 297 297 298 299 299 299 300 301 301 300 298 297 295 294 293 293 292 290
260 263 266 268 270 272 274 275 277 279 281 284 286 287 289 291 293 294 295 296 296 297 297 298 298 298 298 299 299 300 300 301 301 301 301 299 298 296 295 294 294 293 291
260 263 266 268 270 272 273 275 277 279 281 284 286 288 290 291 293 295 296 297 297 298 299 299 300 300 300 300 300 300 300 301 301 301 301 301 300 299 298 296 295 293 291
261 263 265 268 270 272 274 275 277 279 282 284 286 288 290 292 294 295 297 298 298 299 299 300 300 301 301 301 301 301 301 302 301 301 302 302 302 301 300 298 295 293 292
260 263 265 267 269 271 273 276 278 281 283 285 287 289 291 293 295 296 297 298 299 299 300 300 300 301 301 301 302 301 301 301 301 301 302 303 302 301 301 299 296 294 293
260 262 264 266 269 272 274 276 279 282 284 286 287 289 291 294 296 297 298 299 299 300 301 301 302 302 302 302 302 302 301 300 301 302 302 302 301 300 300 299 298 296 294
260 262 263 266 269 272 275 277 280 282 284 286 288 290 293 295 296 297 298 299 300 300 301 303 303 303 303 303 303 302 302 301 301 302 302 302 301 299 299 299 298 297 296
260 262 264 267 269 272 275 277 279 282 284 286 288 291 294 295 297 298 299 300 300 301 303 304 304 305 305 304 304 303 303 303 302 302 302 302 301 300 300 300 300 299 299
260 262 264 267 270 273 275 277 279 281 283 286 289 292 294 296 297 298 300 301 301 303 304 305 306 305 306 306 306 305 305 305 303 302 301 301 301 300 300 300 300 300 300
259 262 265 268 270 273 276 278 280 282 284 286 289 292 295 296 298 299 300 301 303 304 305 306 306 306 307 308 308 307 307 306 305 303 302 301 301 301 300 300 300 300 300
259 262 265 267 270 273 276 278 281 283 285 288 291 294 295 297 299 300 301 302 304 305 306 306 306 306 307 308 309 309 309 308 307 305 303 302 303 303 302 301 302 302 301
260 262 264 268 270 273 276 279 281 284 286 289 292 294 296 298 300 301 303 304 305 306 306 307 307 307 308 309 310 310 310 310 308 306 304 304 304 304 304 304 304 304 305
261 263 265 267 270 272 276 279 281 284 287 289 292 294 296 298 300 301 303 305 306 307 307 307 309 310 310 310 310 311 311 311 309 307 305 306 305 305 305 305 306 307 308
262 264 265 268 271 274 277 280 283 284 287 290 292 294 296 298 300 301 303 304 306 307 307 308 309 311 311 311 311 311 311 312 311 309 307 307 306 306 306 307 307 308 308
262 264 266 268 271 274 277 280 283 285 288 290 292 295 297 298 300 302 303 305 306 307 308 309 310 311 312 311 312 312 312 312 310 308 309 308 307 307 308 309 309 310 310
263 265 266 269 272 275 278 281 283 285 287 290 292 295 297 298 300 301 303 304 306 307 309 310 311 312 312 312 312 313 313 312 312 310 308 307 308 309 309 309 310 311 310
Height
5818 5819 5820 5820 5821 5821 5821 5821 5821 5821 5820 5819 5819 5818 5818 5817 5816 5814 5813 5812 5811 5809 5807 5806 5804 5802 5800 5798 5796 5794 5791 5789 5787 5785 5782 5780 5778 5776 5774 5772 5770 5768 5767
5812 5813 5814 5814 5815 5815 5815 5815 5815 5814 5814 5813 5813 5812 5811 5810 5809 5808 5807 5805 5804 5802 5800 5798 5797 5795 5792 5790 5788 5785 5783 5781 5778 5776 5773 5771 5768 5766 5764 5762 5760 5758 5756
5805 5807 5807 5808 5808 5808 5809 5809 5809 5808 5808 5807 5806 5805 5804 5803 5802 5801 5800 5798 5797 5795 5793 5791 5789 5787 5784 5782 5779 5777 5774 5771 5769 5766 5763 5761 5758 5756 5754 5751 5749 5747 5744
5799 5800 5801 5801 5802 5802 5802 5802 5802 5802 5801 5800 5800 5799 5798 5797 5796 5794 5793 5791 5789 5788 5785 5783 5781 5778 5776 5773 5770 5768 5765 5762 5759 5756 5753 5750 5748 5745 5742 5740 5737 5734 5732
5792 5793 5794 5795 5795 5795 5796 5795 5795 5795 5794 5794 5793 5792 5791 5790 5788 5787 5785 5783 5782 5780 5777 5775 5772 5770 5767 5764 5761 5758 5755 5752 5748 5745 5742 5739 5736 5733 5730 5727 5724 5722 5719
5785 5786 5787 5788 5788 5789 5789 5788 5788 5788 5787 5787 5786 5785 5784 5782 5781 5780 5778 5776 5774 5771 5769 5766 5764 5761 5758 5755 5752 5748 5745 5741 5738 5734 5731 5727 5724 5721 5718 5714 5711 5708 5705
5778 5779 5780 5781 5781 5782 5782 5782 5781 5781 5780 5780 5779 5778 5777 5775 5774 5772 5770 5768 5766 5763 5760 5758 5755 5752 5749 5746 5742 5739 5735 5731 5727 5722 5718 5715 5711 5708 5705 5701 5698 5694 5691
5771 5772 5773 5774 5774 5775 5775 5775 5774 5774 5773 5772 5772 5771 5770 5769 5767 5764 5762 5760 5758 5755 5752 5749 5746 5743 5740 5736 5733 5729 5725 5720 5715 5710 5705 5701 5698 5695 5692 5688 5684 5681 5677
5764 5765 5766 5767 5767 5768 5768 5767 5767 5767 5766 5765 5764 5763 5762 5761 5760 5758 5755 5752 5749 5747 5744 5741 5738 5734 5731 5727 5723 5719 5714 5709 5704 5699 5694 5689 5686 5682 5678 5674 5670 5666 5663
5757 5758 5759 5760 5760 5760 5760 5760 5760 5759 5759 5758 5757 5755 5754 5752 5751 5750 5748 5744 5741 5738 5735 5732 5728 5725 5721 5717 5713 5708 5703 5698 5693 5688 5683 5678 5673 5669 5664 5660 5656 5652 5648
5749 5751 5752 5752 5752 5753 5753 5752 5752 5752 5751 5750 5749 5747 5746 5744 5742 5740 5739 5737 5733 5729 5725 5722 5718 5715 5710 5706 5702 5697 5692 5687 5681 5676 5671 5665 5660 5655 5651 5646 5642 5638 5634
5742 5743 5744 5745 5745 5745 5745 5745 5745 5744 5743 5742 5741 5739 5738 5736 5733 5731 5729 5727 5724 5721 5717 5712 5708 5704 5699 5695 5690 5685 5680 5675 5669 5663 5658 5652 5647 5642 5636 5631 5627 5623 5619
5734 5735 5736 5737 5737 5737 5738 5737 5737 5736 5735 5734 5733 5731 5729 5727 5724 5722 5719 5717 5714 5711 5707 5702 5697 5693 5688 5683 5678 5673 5668 5662 5656 5651 5645 5639 5634 5628 5623 5617 5613 5609 5605
5726 5728 5728 5729 5730 5730 5730 5729 5729 5728 5727 5726 5724 5723 5720 5718 5715 5712 5709 5706 5704 5702 5698 5693 5687 5681 5676 5671 5666 5660 5655 5649 5643 5638 5632 5627 5621 5615 5609 5604 5600 5596 5592
5718 5719 5720 5721 5722 5722 5722 5721 5721 5720 5719 5717 5716 5714 5712 5709 5706 5703 5699 5696 5693 5690 5688 5683 5677 5671 5664 5659 5653 5647 5642 5636 5630 5625 5619 5614 5608 5603 5597 5592 5587 5583 5580
5710 5711 5712 5713 5713 5714 5713 5713 5712 5712 5711 5709 5707 5705 5703 5700 5697 5693 5689 5685 5681 5677 5675 5671 5665 5659 5652 5646 5640 5634 5628 5623 5618 5612 5606 5601 5595 5590 5585 5580 5576 5572 5568
5701 5703 5704 5705 5705 5705 5705 5704 5704 5703 5702 5700 5698 5696 5693 5690 5687 5683 5679 5675 5670 5666 5662 5659 5652 5646 5640 5633 5627 5621 5615 5609 5604 5599 5593 5588 5583 5578 5574 5569 5565 5561 5558
5693 5694 5695 5696 5696 5696 5696 5696 5695 5694 5693 5691 5689 5687 5684 5681 5677 5673 5669 5664 5660 5655 5650 5646 5641 5634 5627 5620 5614 5608 5602 5596 5590 5586 5581 5576 5571 5567 5563 5559 5555 5551 5548
5684 5685 5686 5687 5687 5687 5687 5686 5686 5685 5684 5682 5680 5677 5674 5671 5667 5663 5658 5654 5649 5643 5638 5633 5628 5622 5615 5608 5602 5596 5590 5584 5578 5573 5569 5565 5561 5558 5553 5550 5546 5542 5539
5674 5676 5677 5677 5678 5678 5677 5677 5676 5675 5674 5672 5670 5667 5664 5660 5657 5652 5648 5643 5638 5632 5627 5621 5615 5610 5604 5597 5591 5585 5580 5574 5568 5563 5559 5555 5552 5548 5545 5541 5538 5534 5530
5665 5666 5667 5668 5668 5668 5668 5667 5667 5666 5664 5662 5660 5657 5653 5650 5646 5641 5637 5632 5627 5621 5616 5610 5604 5599 5593 5587 5582 5575 5570 5565 5560 5555 5551 5547 5544 5540 5536 5532 5528 5525 5521
5656 5657 5658 5659 5659 5659 5659 5658 5657 5656 5655 5653 5650 5647 5643 5640 5636 5631 5626 5621 5616 5610 5605 5599 5594 5589 5583 5577 5572 5566 5560 5556 5553 5548 5543 5539 5535 5532 5528 5524 5520 5516 5513
5647 5648 5649 5649 5649 5649 5649 5648 5648 5647 5645 5643 5640 5637 5634 5630 5626 5621 5616 5611 5605 5599 5594 5589 5584 5579 5574 5568 5563 5558 5552 5547 5543 5539 5535 5532 5528 5524 5520 5517 5513 5509 5505
5637 5638 5639 5640 5640 5640 5639 5639 5638 5637 5635 5633 5630 5627 5624 5620 5615 5611 5607 5602 5596 5591 5586 5581 5575 5570 5564 5559 5553 5549 5544 5540 5535 5530 5526 5524 5521 5517 5514 5509 5506 5501 5497
5627 5628 5629 5630 5630 5630 5630 5629 5628 5627 5625 5623 5620 5617 5613 5610 5606 5602 5598 5593 5588 5583 5577 5572 5566 5561 5555 5550 5545 5541 5536 5532 5528 5524 5520 5517 5514 5511 5507 5503 5499 5494 5490
5618 5619 5620 5620 5621 5621 5620 5619 5618 5617 5615 5613 5610 5607 5604 5600 5596 5592 5588 5584 5580 5575 5570 5565 5559 5553 5548 5543 5538 5533 5529 5525 5521 5518 5514 5510 5507 5504 5501 5497 5493 5488 5483